Regional Weather Roundup
Issued by NWS

Home | Current Version | Previous Version | Graphics & Text | Print | Product List | Glossary On
Versions: 1 2 3 4 5 6 7 8 9 10 11 12 13 14 15 16 17 18 19 20 21 22 23 24 25 26 27 28 29 30 31 32 33 34 35 36 37 38 39 40 41 42 43 44 45 46 47 48 49 50
000
ASUS43 KMKX 031410
RWRWI

WISCONSIN REGIONAL WEATHER ROUNDUP
NATIONAL WEATHER SERVICE MILWAUKEE/SULLIVAN WI
800 AM CST TUE MAR 03 2015

NOTE: "FAIR" INDICATES FEW OR NO CLOUDS BELOW 12,000 FEET WITH NO
SIGNIFICANT WEATHER AND/OR OBSTRUCTIONS TO VISIBILITY.

WIZ001-002-006>008-014>016-023>028-031500-
NORTHWEST WISCONSIN

CITY           SKY/WX    TMP DP  RH WIND       PRES   REMARKS
SUPERIOR ARPT  SNOW      21  19  91 SW6       29.69F VSB 1/2 WCI  13
ASHLAND        LGT SNOW  21  16  81 S5        29.71F WCI  15
HAYWARD        CLOUDY    20  13  74 S7        29.68F WCI  11
SIREN          LGT SNOW  21  15  78 S3        29.70F
CUMBERLAND     FLURRIES  19  14  79 S5        29.69S WCI  13
RICE LAKE      FLURRIES  21  15  78 SE7       29.71F WCI  13
CHETEK         LGT SNOW  21  16  80 SE7       29.71S WCI  12
LADYSMITH      CLOUDY    22  15  77 SE6       29.70F WCI  14
EAU CLAIRE     LGT SNOW  22  16  78 SE5       29.70S WCI  16
MENOMONIE      LGT SNOW  22  18  85 SE3       29.71F
NEW RICHMOND   SNOW      21  17  84 S5        29.72R VSB 1/2 WCI  14
OSCEOLA        LGT SNOW  22  16  78 S5        29.75R WCI  16
$$

WIZ003>005-009-010-017-018-031500-
NORTH CENTRAL WISCONSIN

CITY           SKY/WX    TMP DP  RH WIND       PRES   REMARKS
MANITOWISH WTR CLOUDY    18  13  82 S7        29.67F WCI   9
ARBOR VITAE    CLOUDY    19  14  81 SE7       29.68F WCI  10
WOODRUFF       CLOUDY    19  14  81 SE7       29.68F WCI  10
RHINELANDER    CLOUDY    19  13  77 VRB6      29.70F WCI  11
EAGLE RIVER    PTSUNNY   19  12  75 SE5       29.69F WCI  12
LAND O LAKES   CLOUDY    20  14  77 S3        29.69F
PHILLIPS       CLOUDY    19  13  79 SE5       29.68F WCI  12
TOMAHAWK       CLOUDY    19  15  82 CALM      29.70F
MEDFORD        LGT SNOW  19  14  81 SE8       29.68F WCI   9
MERRILL        CLOUDY    20  15  81 SE7       29.72F WCI  11
$$

WIZ029-030-035-036-043>047-031500-
CENTRAL WISCONSIN

CITY           SKY/WX    TMP DP  RH WIND       PRES   REMARKS
WAUSAU         LGT SNOW  20  15  81 SE9       29.71F VSB 3/4 WCI   9
MOSINEE        CLOUDY    19  18  93 SE6       29.74F VSB 3/4 WCI  11
MARSHFIELD     LGT SNOW  21  17  84 SE8       29.71F FOG     WCI  11
STEVENS POINT  LGT SNOW  19  17  89 SE8       29.75F WCI   9
WAUPACA        SNOW      24  20  85 E6        29.77F VSB 1/2 WCI  17
WAUTOMA        LGT SNOW  22  21  96 SE3       29.78F FOG
WISC RAPIDS    CLOUDY    21  16  81 SE9       29.75F HAZE    WCI  11
CAMP DOUGLAS   LGT SNOW  23  23 100 SE9       29.73F FOG     WCI  13
$$

WIZ011>013-019>022-031-037>040-048>050-031500-
NORTHEAST WISCONSIN

CITY           SKY/WX    TMP DP  RH WIND       PRES   REMARKS
ANTIGO         CLOUDY    18  15  90 SE12      29.72F WCI   5
SHAWANO        LGT SNOW  25  20  82 S6        29.80F WCI  18
OCONTO         CLOUDY    25  22  91 S7        29.82F WCI  17
STURGEON BAY   CLOUDY    27  21  80 S17G23    29.84F WCI  14
GREEN BAY      SNOW      26  23  88 S10       29.82F VSB 1/2 WCI  16
MANITOWOC      LGT SNOW  28  26  92 S18       29.82F FOG     WCI  15
APPLETON       LGT SNOW  23  21  93 SE13      29.80F VSB 1   WCI  11
CLINTONVILLE   LGT SNOW  25  19  80 S8        29.79F WCI  16
OSHKOSH        LGT SNOW  24  20  84 SE9       29.77F FOG     WCI  14
$$

WIZ032>034-041-042-053>061-031500-
SOUTHWEST WISCONSIN

CITY           SKY/WX    TMP DP  RH WIND       PRES   REMARKS
LA CROSSE      CLOUDY    25  20  81 SE9       29.72F WCI  15
SPARTA         CLOUDY    23  19  83 E3        29.73F
VIROQUA        CLOUDY    22  21  97 SE9       29.69F WCI  12
BOSCOBEL       CLOUDY    25  22  88 CALM      29.73F FOG
PRAIRIE DU CHI MIX PCPN  25  22  91 E6        29.73F WCI  18
PLATTEVILLE    CLOUDY    25  23  91 E6        29.71F WCI  18
$$

WIZ056-057-062-063-064-067-068-031500-
SOUTH CENTRAL WISCONSIN

CITY           SKY/WX    TMP DP  RH WIND       PRES   REMARKS
REEDSBURG      LGT SNOW  22  21  93 SE5       29.74F VSB 1   WCI  16
BARABOO/DELLS  LGT SNOW  23  20  89 SE8       29.74F VSB 1   WCI  13
LONE ROCK      CLOUDY    25  20  81 SE7       29.74F HAZE    WCI  17
MINERAL POINT  LGT SNOW  27  23  86 SE12G18   29.70F WCI  16
MADISON        LGT SNOW  24  20  84 SE15      29.75F FOG     WCI  11
MIDDLETON      CLOUDY    26  22  85 SE8       29.75F WCI  17
WATERTOWN      LGT SNOW  24  23  96 SE8       29.78F WCI  15
MONROE         LGT SNOW  27  25  93 SE12      29.72F WCI  16
JANESVILLE     SNOW      27  25  93 SE12      29.77F VSB 1/2 WCI  16
$$

WIZ051-052-058>065-066-070>072-031500-
SOUTHEAST WISCONSIN

CITY           SKY/WX    TMP DP  RH WIND       PRES   REMARKS
MILWAUKEE      SNOW      26  23  88 SE16      29.81F VSB 1/2 WCI  14
WAUKESHA       SNOW      23  21  93 SE14      29.78F VSB 1/2 WCI  11
MILWAUKEE/TIMM SNOW      27  23  86 SE9       29.81F VSB 1/2 WCI  17
RACINE         HVY SNOW  27  24  89 SE22      29.84F VSB 1/4 WCI  13
BURLINGTON     LGT SNOW  23  22  95 SE7       29.79F VSB 1   WCI  15
KENOSHA        SNOW      26  25  96 SE16      29.81F VSB 1/2 WCI  14
FOND DU LAC    LGT SNOW  25  20  81 S15       29.77F VSB 1   WCI  13
SHEBOYGAN      CLOUDY    27  23  85 S15G21    29.80F FOG     WCI  15
WEST BEND      LGT SNOW  27  23  86 SE7G17    29.79F WCI  19
JUNEAU         LGT SNOW  24  22  91 SE10      29.79F VSB 1   WCI  13
$$

LSZ147-162-031500-
LAKE SUPERIOR

STATION/POSITION TIME  TEMP    WIND        PRES    WAVE
                       AIR SEA DIR/SP/G            HT/PER
                 (UTC) (F)     (DEG/KT/KT) (MB)    (FT/S)
DEVILS ISLAND    1400   21     190/ 11/ 14 1006.8F
PORT WING        1340   22     180/  6/ 12 1006.1F
SAXON HARBOR     1340   23      CALM  /  4 1006.8F
$$

LMZ867-665-643>646-031500-
LAKE MICHIGAN

STATION/POSITION TIME  TEMP    WIND        PRES    WAVE
                       AIR SEA DIR/SP/G            HT/PER
                 (UTC) (F)     (DEG/KT/KT) (MB)    (FT/S)
NORTHPORT PIER   1406   29     150/ 11/ 22 1010.5F
SISTER BAY       1343   28     190/ 16/ 21   N/A
KEWAUNEE LAKESHO 1300          180/ 20/ 28   N/A
SHEBOYGAN LAKESH 1400   28     170/ 25/ 28 1010.5F
PORT WASHINGTON  1401   29     160/ 21     1009.8F
MILWAUKEE LAKESH 1300   27     160/ 19/ 22   N/A
KENOSHA   LAKESH 1400   27     160/ 29/ 31 1009.1F
$$

TC  - TEMPERATURE IN CELSIUS
VSB - VISIBILITY IN STATUTE MILES
WCI - WIND CHILL INDEX
HX  - HEAT INDEX



USA.gov is the U.S. government's official web portal to all federal, state and local government web resources and services.